Manistique, MI

7:53 AM EDT on July 28, 2017 (GMT -0400)
Schoolcraft County

Weather History for KISQ - April, 2013

Change the Weather History Date:

Friday, April 26, 2013

  Actual Average Record
Temperature  
Mean Temperature 40 °F -  
Max Temperature 48 °F 52 °F 84 °F (1990)
Min Temperature 32 °F 33 °F 20 °F (1958)
Degree Days  
Heating Degree Days 25    
Moisture  
Dew Point 34 °F    
Average Humidity 80    
Maximum Humidity 93    
Minimum Humidity 58    
Precipitation  
Precipitation 0.00 in - - ()
Sea Level Pressure  
Sea Level Pressure 30.22 in    
Wind  
Wind Speed 6 mph (South)    
Max Wind Speed 15 mph    
Max Gust Speed 21 mph    
Visibility 10 miles    
Events Rain    
Averages and records for this station are not official NWS values.
T = Trace of Precipitation, MM = Missing Value Source: NWS Daily Summary

Daily Weather History Graph

Daily Weather History Graph

Search for Another Location

Airport or City:

Trip Planner

Search our weather history database for the weather conditions in past years. The results will help you decide how hot, cold, wet, or windy it might be!

Date:

Astronomy

Apr. 26, 2013 Rise Set
Actual Time 6:39 AM EDT 8:46 PM EDT
Civil Twilight 6:06 AM EDT 9:19 PM EDT
Nautical Twilight 5:26 AM EDT 9:59 PM EDT
Astronomical Twilight 4:42 AM EDT 10:44 PM EDT
Moon 10:12 PM EDT (4/26) 7:03 AM EDT (4/26)
Length of Visible Light 15h 12m
Length of Day
14h 07m
Full, 99% of the Moon is Illuminated
Apr 26
Full
May 2
Last Quarter
May 9
New
May 18
First Quarter
May 25
Full

Hourly Weather History & Observations

Time (EDT) Temp. Windchill Dew Point Humidity Pressure Visibility Wind Dir Wind Speed Gust Speed Precip Events Conditions
12:14 AM 33.8 °F 27.7 °F 30.2 °F 87% 30.22 in 10.0 mi SSE 6.9 mph - N/A   Clear
12:35 AM 33.8 °F 29.6 °F 30.2 °F 87% 30.23 in 10.0 mi South 4.6 mph - N/A   Clear
12:55 AM 33.8 °F 29.6 °F 30.2 °F 87% 30.23 in 10.0 mi South 4.6 mph - N/A   Clear
1:14 AM 33.8 °F - 30.2 °F 87% 30.24 in 10.0 mi Calm Calm - N/A   Clear
1:35 AM 35.6 °F - 32.0 °F 87% 30.24 in 10.0 mi Calm Calm - N/A   Clear
1:54 AM 35.6 °F - 30.2 °F 81% 30.24 in 10.0 mi Calm Calm - N/A   Clear
2:15 AM 32.0 °F - 28.4 °F 87% 30.24 in 10.0 mi Calm Calm - N/A   Clear
2:34 AM 33.8 °F - 30.2 °F 87% 30.25 in 10.0 mi Calm Calm - N/A   Clear
3:14 AM 33.8 °F - 30.2 °F 87% 30.25 in 10.0 mi Calm Calm - N/A   Clear
3:35 AM 32.0 °F 28.7 °F 30.2 °F 93% 30.25 in 10.0 mi South 3.5 mph - N/A   Clear
3:55 AM 33.8 °F - 30.2 °F 87% 30.25 in 10.0 mi Calm Calm - N/A   Clear
4:14 AM 33.8 °F 30.8 °F 30.2 °F 87% 30.25 in 10.0 mi South 3.5 mph - N/A   Clear
4:35 AM 33.8 °F 29.6 °F 30.2 °F 87% 30.25 in 10.0 mi South 4.6 mph - N/A   Clear
4:54 AM 32.0 °F 27.5 °F 30.2 °F 93% 30.25 in 10.0 mi South 4.6 mph - N/A   Clear
5:15 AM 33.8 °F 28.6 °F 30.2 °F 87% 30.25 in 10.0 mi South 5.8 mph - N/A   Clear
5:35 AM 33.8 °F 28.6 °F 30.2 °F 87% 30.25 in 10.0 mi South 5.8 mph - N/A   Clear
5:54 AM 35.6 °F 31.7 °F 33.8 °F 93% 30.25 in 10.0 mi South 4.6 mph - N/A   Clear
6:15 AM 35.6 °F 29.2 °F 33.8 °F 93% 30.25 in 10.0 mi South 8.1 mph - N/A   Clear
6:34 AM 35.6 °F 32.8 °F 33.8 °F 93% 30.26 in 7.0 mi South 3.5 mph - N/A   Clear
6:55 AM 35.6 °F 31.7 °F 33.8 °F 93% 30.26 in 5.0 mi South 4.6 mph - N/A   Clear
7:15 AM 35.6 °F 31.7 °F 33.8 °F 93% 30.26 in 5.0 mi South 4.6 mph - N/A   Clear
7:34 AM 35.6 °F 31.7 °F 33.8 °F 93% 30.26 in 5.0 mi South 4.6 mph - N/A   Clear
7:55 AM 37.4 °F 32.8 °F 35.6 °F 93% 30.27 in 5.0 mi SSW 5.8 mph - N/A   Clear
8:14 AM 37.4 °F 33.8 °F 35.6 °F 93% 30.27 in 7.0 mi SSW 4.6 mph - N/A   Clear
8:34 AM 39.2 °F 35.9 °F 35.6 °F 87% 30.27 in 7.0 mi South 4.6 mph - N/A   Scattered Clouds
8:55 AM 39.2 °F 33.6 °F 37.4 °F 93% 30.27 in 10.0 mi South 8.1 mph - N/A   Mostly Cloudy
9:14 AM 39.2 °F 33.0 °F 35.6 °F 87% 30.26 in 10.0 mi South 9.2 mph - N/A   Mostly Cloudy
9:35 AM 39.2 °F 33.6 °F 35.6 °F 87% 30.27 in 10.0 mi South 8.1 mph - N/A   Overcast
9:55 AM 39.2 °F 34.2 °F 35.6 °F 87% 30.28 in 10.0 mi SSW 6.9 mph - N/A   Overcast
10:14 AM 39.2 °F 34.2 °F 35.6 °F 87% 30.27 in 10.0 mi South 6.9 mph - N/A   Overcast
10:35 AM 39.2 °F 34.2 °F 35.6 °F 87% 30.27 in 10.0 mi South 6.9 mph - N/A   Mostly Cloudy
10:54 AM 39.2 °F 32.0 °F 35.6 °F 87% 30.27 in 10.0 mi SSW 11.5 mph - N/A   Overcast
11:15 AM 39.2 °F 32.5 °F 35.6 °F 87% 30.27 in 7.0 mi SSW 10.4 mph - N/A   Drizzle
11:35 AM 39.2 °F 33.0 °F 35.6 °F 87% 30.27 in 10.0 mi South 9.2 mph - N/A Rain Rain
11:54 AM 39.2 °F 33.6 °F 35.6 °F 87% 30.26 in 10.0 mi SSE 8.1 mph - N/A   Overcast
12:15 PM 39.2 °F 33.0 °F 35.6 °F 87% 30.26 in 10.0 mi SSE 9.2 mph - N/A   Light Drizzle
12:34 PM 39.2 °F 32.5 °F 35.6 °F 87% 30.26 in 10.0 mi SSE 10.4 mph - N/A   Drizzle
12:55 PM 39.2 °F 33.6 °F 35.6 °F 87% 30.27 in 10.0 mi South 8.1 mph - N/A   Drizzle
1:14 PM 39.2 °F 33.0 °F 35.6 °F 87% 30.26 in 7.0 mi SSE 9.2 mph - N/A   Drizzle
1:35 PM 39.2 °F 33.0 °F 37.4 °F 93% 30.23 in 10.0 mi SSE 9.2 mph - N/A Rain Light Rain
1:55 PM 42.8 °F 36.2 °F 37.4 °F 81% 30.23 in 10.0 mi SSE 12.7 mph 19.6 mph N/A   Mostly Cloudy
2:14 PM 44.6 °F 38.1 °F 37.4 °F 76% 30.22 in 10.0 mi SSE 13.8 mph - N/A   Scattered Clouds
2:35 PM 46.4 °F 40.4 °F 35.6 °F 66% 30.21 in 10.0 mi SSE 13.8 mph 20.7 mph N/A   Scattered Clouds
2:54 PM 46.4 °F 40.1 °F 35.6 °F 66% 30.20 in 10.0 mi SSE 15.0 mph 19.6 mph N/A   Mostly Cloudy
3:15 PM 48.2 °F - 35.6 °F 62% 30.20 in 10.0 mi SE 12.7 mph - N/A   Scattered Clouds
3:35 PM 48.2 °F - 33.8 °F 58% 30.20 in 10.0 mi SSE 11.5 mph 17.3 mph N/A   Scattered Clouds
3:54 PM 46.4 °F 41.5 °F 33.8 °F 62% 30.19 in 10.0 mi SSE 10.4 mph - N/A   Scattered Clouds
4:15 PM 48.2 °F - 33.8 °F 58% 30.18 in 10.0 mi SSE 11.5 mph - N/A   Mostly Cloudy
4:34 PM 46.4 °F 41.5 °F 33.8 °F 62% 30.18 in 10.0 mi SE 10.4 mph - N/A   Mostly Cloudy
4:55 PM 46.4 °F 41.5 °F 33.8 °F 62% 30.17 in 10.0 mi SSE 10.4 mph - N/A   Scattered Clouds
5:15 PM 46.4 °F 41.5 °F 33.8 °F 62% 30.16 in 10.0 mi SSE 10.4 mph - N/A   Clear
5:34 PM 46.4 °F 41.5 °F 33.8 °F 62% 30.16 in 10.0 mi South 10.4 mph - N/A   Clear
5:55 PM 44.6 °F 40.2 °F 33.8 °F 66% 30.15 in 10.0 mi SSE 8.1 mph - N/A   Clear
6:15 PM 44.6 °F 40.7 °F 33.8 °F 66% 30.15 in 10.0 mi SSE 6.9 mph - N/A   Clear
6:34 PM 44.6 °F 40.7 °F 33.8 °F 66% 30.15 in 10.0 mi South 6.9 mph - N/A   Clear
6:55 PM 44.6 °F 41.4 °F 33.8 °F 66% 30.16 in 10.0 mi South 5.8 mph - N/A   Clear
7:14 PM 44.6 °F 41.4 °F 33.8 °F 66% 30.15 in 10.0 mi SSE 5.8 mph - N/A   Clear
7:35 PM 44.6 °F 41.4 °F 33.8 °F 66% 30.15 in 10.0 mi South 5.8 mph - N/A   Clear
7:55 PM 44.6 °F 41.4 °F 33.8 °F 66% 30.15 in 10.0 mi South 5.8 mph - N/A   Scattered Clouds
8:14 PM 44.6 °F 42.2 °F 35.6 °F 71% 30.15 in 10.0 mi South 4.6 mph - N/A   Mostly Cloudy
8:34 PM 44.6 °F 41.4 °F 35.6 °F 71% 30.15 in 10.0 mi South 5.8 mph - N/A   Overcast
8:55 PM 44.6 °F 41.4 °F 35.6 °F 71% 30.15 in 10.0 mi SSE 5.8 mph - N/A   Overcast
9:14 PM 44.6 °F 39.7 °F 35.6 °F 71% 30.15 in 10.0 mi South 9.2 mph - N/A   Mostly Cloudy
9:35 PM 44.6 °F 39.2 °F 37.4 °F 76% 30.16 in 10.0 mi South 10.4 mph - N/A   Mostly Cloudy
9:54 PM 44.6 °F 39.2 °F 37.4 °F 76% 30.16 in 10.0 mi South 10.4 mph - N/A   Mostly Cloudy
10:14 PM 44.6 °F 39.7 °F 37.4 °F 76% 30.16 in 10.0 mi South 9.2 mph - N/A   Mostly Cloudy
10:35 PM 42.8 °F 37.0 °F 37.4 °F 81% 30.16 in 10.0 mi South 10.4 mph - N/A   Mostly Cloudy
10:54 PM 42.8 °F 39.3 °F 37.4 °F 81% 30.17 in 10.0 mi SSE 5.8 mph - N/A   Overcast
11:15 PM 42.8 °F 38.6 °F 37.4 °F 81% 30.17 in 10.0 mi SSE 6.9 mph - N/A   Overcast
11:35 PM 42.8 °F 39.3 °F 37.4 °F 81% 30.16 in 10.0 mi SSE 5.8 mph - N/A   Mostly Cloudy
11:54 PM 41.0 °F 38.0 °F 35.6 °F 81% 30.16 in 10.0 mi SSE 4.6 mph - N/A   Scattered Clouds